Skip Page Navigation
NASA JPL Caltech
NASA Logo - Jet Propulsion Laboratory + View the NASA Portal
+ Center for Near-Earth Object Studies
JPL Home Earth Solar System Stars & Galaxies Technology
JPL Solar System Dynamics
BODIES ORBITS EPHEMERIDES TOOLS PHYSICAL DATA DISCOVERY FAQ SITE MAP
IMPORTANT: The SSD Announcement email list is now available. Major changes are coming in the near future, including possible hostname and/or URL changes. To be notified of such changes, subscribe to this email list.

Please visit this page for more details.


JPL Small-Body Database Browser
Search: [ help ]  
215564 (2003 DG24)
Classification: Main-belt Asteroid          SPK-ID: 2215564
Ephemeris | Orbit Diagram | Orbital Elements | Mission Design | Physical Parameters | Discovery Circumstances | Close-Approach Data ]

[ show orbit diagram ]
Orbital Elements at Epoch 2458600.5 (2019-Apr-27.0) TDB
Reference: JPL 10 (heliocentric ecliptic J2000)
 Element Value Uncertainty (1-sigma)   Units 
e .1184266047347542 6.8019e-08  
a 3.123200628560432 4.357e-08 au
q 2.75333058221457 2.251e-07 au
i 15.69819041775886 6.8443e-06 deg
node 25.28688852017405 2.7711e-05 deg
peri 212.8132250656882 5.616e-05 deg
M 276.5281709344785 5.6205e-05 deg
tp 2459067.950556575615
(2020-Aug-06.45055658)
0.00031953 TDB
period 2016.035856062621
5.52
4.2187e-05
1.155e-07
d
yr
n .1785682526019606 3.7366e-09 deg/d
Q 3.493070674906294 4.873e-08 au
  Orbit Determination Parameters
   # obs. used (total)      214  
   data-arc span      5848 days (16.01 yr)  
   first obs. used      2003-02-28  
   last obs. used      2019-03-04  
   planetary ephem.      DE431  
   SB-pert. ephem.      SB431-N16  
   condition code      0  
   norm. resid. RMS      .65219  
   source      ORB  
   producer      Otto Matic  
   solution date      2019-Jul-14 08:02:03  

Additional Information
 Earth MOID = 1.75648 au 
 Jupiter MOID = 1.5373 au 
 T_jup = 3.147 
[ show covariance matrix ]

Ephemeris | Orbit Diagram | Orbital Elements | Mission Design | Physical Parameters | Discovery Circumstances | Close-Approach Data ]

Physical Parameter Table
Parameter Symbol Value Units Sigma Reference Notes
absolute magnitude H 14.8   n/a MPO433410  

215564 (2003 DG24)          Discovered 2003-Feb-28 by LINEAR at Socorro
Reference: 20090607/Numbers.arcLast Updated: 2009-06-08

[ show close-approach data ]
Ephemeris | Orbit Diagram | Orbital Elements | Mission Design | Physical Parameters | Discovery Circumstances | Close-Approach Data ]
ABOUT SSD CREDITS/AWARDS PRIVACY/COPYRIGHT GLOSSARY LINKS
FirstGov 2019-Dec-14 08:43 UT
(server date/time)  
NASA Home Page
Site Manager:   Ryan S. Park
Webmaster  Alan B. Chamberlin